| time (UTC) | temp F | wind direction | speed MPH | gust MPH | rain 1hr in | rain 24hr in | rain mn in | humidity % | barometer mb |
| 20260506204505 | 62 | 78 | 0.0 | 4.0 | 0.00 | 0.00 | 0.00 | 44 | 1011.5 |
| 20260506203959 | 63 | 43 | 0.0 | 5.0 | 0.00 | 0.00 | 0.00 | 42 | 1011.6 |
| 20260506203453 | 63 | 31 | 0.0 | 5.0 | 0.00 | 0.00 | 0.00 | 44 | 1011.5 |
| 20260506202948 | 63 | 64 | 1.0 | 6.0 | 0.00 | 0.00 | 0.00 | 45 | 1011.5 |
| 20260506202448 | 63 | 57 | 1.0 | 6.0 | 0.00 | 0.00 | 0.00 | 44 | 1011.6 |
| 20260506201947 | 62 | 40 | 0.0 | 3.0 | 0.00 | 0.00 | 0.00 | 46 | 1011.7 |
| 20260506201445 | 62 | 34 | 0.0 | 8.0 | 0.00 | 0.00 | 0.00 | 45 | 1011.7 |
| 20260506200942 | 63 | 17 | 0.0 | 8.0 | 0.00 | 0.00 | 0.00 | 46 | 1011.6 |
| 20260506200441 | 63 | 74 | 0.0 | 5.0 | 0.00 | 0.00 | 0.00 | 48 | 1011.5 |
| 20260506195939 | 62 | 327 | 0.0 | 7.0 | 0.00 | 0.00 | 0.00 | 44 | 1011.6 |
| 20260506195437 | 63 | 75 | 0.0 | 7.0 | 0.00 | 0.00 | 0.00 | 45 | 1011.8 |
| 20260506195154 | 63 | 30 | 0.0 | 3.0 | 0.00 | 0.00 | 0.00 | 45 | 1011.8 |
| 20260506194433 | 63 | 52 | 1.0 | 9.0 | 0.00 | 0.00 | 0.00 | 48 | 1011.8 |
| 20260506193933 | 63 | 48 | 1.0 | 9.0 | 0.00 | 0.00 | 0.00 | 45 | 1011.9 |
| 20260506193433 | 63 | 62 | 1.0 | 7.0 | 0.00 | 0.00 | 0.00 | 48 | 1012.1 |
| 20260506192934 | 63 | 46 | 1.0 | 5.0 | 0.00 | 0.00 | 0.00 | 47 | 1012.2 |
| 20260506192432 | 63 | 26 | 0.0 | 8.0 | 0.00 | 0.00 | 0.00 | 49 | 1012.2 |
| 20260506191933 | 62 | 43 | 0.0 | 8.0 | 0.00 | 0.00 | 0.00 | 50 | 1012.3 |
| 20260506191432 | 63 | 43 | 0.0 | 9.0 | 0.00 | 0.00 | 0.00 | 46 | 1012.2 |
| 20260506190934 | 63 | 70 | 1.0 | 9.0 | 0.00 | 0.00 | 0.00 | 46 | 1012.2 |
| 20260506190432 | 62 | 51 | 1.0 | 6.0 | 0.00 | 0.00 | 0.00 | 47 | 1012.2 |
| 20260506185933 | 62 | 56 | 0.0 | 6.0 | 0.00 | 0.00 | 0.00 | 49 | 1012.3 |
| 20260506185433 | 62 | 67 | 1.0 | 4.0 | 0.00 | 0.00 | 0.00 | 46 | 1012.4 |
| 20260506184932 | 62 | 355 | 1.0 | 5.0 | 0.00 | 0.00 | 0.00 | 46 | 1012.4 |
| 20260506184423 | 62 | 38 | 0.0 | 7.0 | 0.00 | 0.00 | 0.00 | 47 | 1012.6 |
| 20260506183918 | 62 | 61 | 0.0 | 7.0 | 0.00 | 0.00 | 0.00 | 49 | 1012.6 |
| 20260506183415 | 62 | 61 | 1.0 | 7.0 | 0.00 | 0.00 | 0.00 | 47 | 1012.6 |
| 20260506182908 | 61 | 52 | 1.0 | 7.0 | 0.00 | 0.00 | 0.00 | 50 | 1012.7 |
| 20260506182408 | 62 | 37 | 1.0 | 6.0 | 0.00 | 0.00 | 0.00 | 47 | 1012.7 |
| 20260506181908 | 61 | 70 | 1.0 | 10.0 | 0.00 | 0.00 | 0.00 | 48 | 1012.9 |
| 20260506181406 | 61 | 55 | 1.0 | 10.0 | 0.00 | 0.00 | 0.00 | 45 | 1013.0 |
| 20260506180905 | 62 | 100 | 0.0 | 8.0 | 0.00 | 0.00 | 0.00 | 47 | 1013.0 |
| 20260506180405 | 61 | 36 | 1.0 | 8.0 | 0.00 | 0.00 | 0.00 | 51 | 1013.1 |
| 20260506175905 | 61 | 36 | 1.0 | 8.0 | 0.00 | 0.00 | 0.00 | 47 | 1013.2 |
| 20260506175405 | 61 | 47 | 1.0 | 11.0 | 0.00 | 0.00 | 0.00 | 48 | 1013.1 |
| 20260506174905 | 61 | 44 | 0.0 | 11.0 | 0.00 | 0.00 | 0.00 | 46 | 1013.1 |
| 20260506174405 | 61 | 74 | 0.0 | 5.0 | 0.00 | 0.00 | 0.00 | 47 | 1013.1 |
| 20260506173906 | 61 | 67 | 0.0 | 5.0 | 0.00 | 0.00 | 0.00 | 46 | 1013.2 |
| 20260506173405 | 61 | 76 | 0.0 | 6.0 | 0.00 | 0.00 | 0.00 | 49 | 1013.2 |
| 20260506173133 | 60 | 65 | 0.0 | 6.0 | 0.00 | 0.00 | 0.00 | 46 | 1013.2 |
| 20260506172404 | 60 | 0 | 0.0 | 7.0 | 0.00 | 0.00 | 0.00 | 49 | 1013.3 |
| 20260506171905 | 60 | 26 | 0.0 | 7.0 | 0.00 | 0.00 | 0.00 | 48 | 1013.5 |
| 20260506171405 | 60 | 28 | 0.0 | 7.0 | 0.00 | 0.00 | 0.00 | 49 | 1013.6 |
| 20260506170905 | 60 | 9 | 1.0 | 9.0 | 0.00 | 0.00 | 0.00 | 49 | 1013.6 |
| 20260506170405 | 59 | 65 | 1.0 | 9.0 | 0.00 | 0.00 | 0.00 | 51 | 1013.7 |
| 20260506165905 | 59 | 36 | 0.0 | 6.0 | 0.00 | 0.00 | 0.00 | 51 | 1013.6 |
| 20260506165404 | 59 | 45 | 0.0 | 7.0 | 0.00 | 0.00 | 0.00 | 50 | 1013.6 |
| 20260506164905 | 59 | 12 | 1.0 | 7.0 | 0.00 | 0.00 | 0.00 | 52 | 1013.6 |
| 20260506164405 | 59 | 22 | 0.0 | 7.0 | 0.00 | 0.00 | 0.00 | 51 | 1013.6 |
| 20260506163905 | 59 | 77 | 0.0 | 4.0 | 0.00 | 0.00 | 0.00 | 52 | 1013.6 |
| 20260506163404 | 58 | 14 | 1.0 | 9.0 | 0.00 | 0.00 | 0.00 | 52 | 1013.6 |
| 20260506162903 | 58 | 342 | 1.0 | 9.0 | 0.00 | 0.00 | 0.00 | 50 | 1013.7 |
| 20260506162401 | 58 | 22 | 0.0 | 11.0 | 0.00 | 0.00 | 0.00 | 52 | 1013.7 |
| 20260506161902 | 58 | 69 | 0.0 | 11.0 | 0.00 | 0.00 | 0.00 | 52 | 1013.4 |
| 20260506161402 | 58 | 67 | 0.0 | 5.0 | 0.00 | 0.00 | 0.00 | 51 | 1013.3 |
| 20260506160902 | 58 | 336 | 1.0 | 9.0 | 0.00 | 0.00 | 0.00 | 52 | 1013.2 |
| 20260506160400 | 58 | 64 | 1.0 | 11.0 | 0.00 | 0.00 | 0.00 | 51 | 1013.3 |
| 20260506160345 | 58 | 53 | 1.0 | 11.0 | 0.00 | 0.00 | 0.00 | 52 | 1013.3 |
| 20260506155401 | 58 | 42 | 1.0 | 8.0 | 0.00 | 0.00 | 0.00 | 55 | 1013.3 |
| 20260506155120 | 57 | 307 | 1.0 | 8.0 | 0.00 | 0.00 | 0.00 | 53 | 1013.1 |
| 20260506154400 | 57 | 77 | 0.0 | 8.0 | 0.00 | 0.00 | 0.00 | 53 | 1013.0 |
| 20260506153900 | 57 | 23 | 1.0 | 8.0 | 0.00 | 0.00 | 0.00 | 55 | 1013.1 |
| 20260506153622 | 57 | 345 | 0.0 | 8.0 | 0.00 | 0.00 | 0.00 | 54 | 1013.0 |
| 20260506153108 | 57 | 55 | 0.0 | 8.0 | 0.00 | 0.00 | 0.00 | 57 | 1012.8 |
| 20260506152836 | 57 | 64 | 1.0 | 8.0 | 0.00 | 0.00 | 0.00 | 56 | 1012.4 |
| 20260506152100 | 57 | 65 | 1.0 | 9.0 | 0.00 | 0.00 | 0.00 | 58 | 1012.3 |
| 20260506151342 | 56 | 36 | 0.0 | 9.0 | 0.00 | 0.00 | 0.00 | 59 | 1012.3 |
| 20260506150841 | 56 | 61 | 0.0 | 5.0 | 0.00 | 0.00 | 0.00 | 62 | 1012.3 |
| 20260506150342 | 55 | 59 | 0.0 | 5.0 | 0.00 | 0.00 | 0.00 | 60 | 1012.3 |
| 20260506145842 | 55 | 64 | 0.0 | 6.0 | 0.00 | 0.00 | 0.00 | 60 | 1012.2 |
| 20260506145340 | 54 | 67 | 1.0 | 6.0 | 0.00 | 0.00 | 0.00 | 62 | 1012.1 |
| 20260506144840 | 54 | 14 | 1.0 | 8.0 | 0.00 | 0.00 | 0.00 | 61 | 1012.0 |
| 20260506144340 | 53 | 56 | 2.0 | 10.0 | 0.00 | 0.00 | 0.00 | 62 | 1012.0 |
| 20260506143840 | 53 | 61 | 1.0 | 10.0 | 0.00 | 0.00 | 0.00 | 62 | 1012.1 |
| 20260506143339 | 53 | 40 | 1.0 | 10.0 | 0.00 | 0.00 | 0.00 | 66 | 1012.2 |
| 20260506142840 | 53 | 26 | 0.0 | 5.0 | 0.00 | 0.00 | 0.00 | 68 | 1012.6 |
| 20260506142341 | 52 | 36 | 0.0 | 5.0 | 0.00 | 0.00 | 0.00 | 69 | 1012.8 |
| 20260506141839 | 52 | 61 | 1.0 | 9.0 | 0.00 | 0.00 | 0.00 | 69 | 1012.4 |
| 20260506141340 | 52 | 35 | 1.0 | 9.0 | 0.00 | 0.00 | 0.00 | 71 | 1012.4 |
| 20260506140839 | 52 | 53 | 1.0 | 10.0 | 0.00 | 0.00 | 0.00 | 71 | 1012.3 |
| 20260506140339 | 51 | 50 | 1.0 | 10.0 | 0.00 | 0.00 | 0.00 | 72 | 1012.0 |
| 20260506135840 | 51 | 0 | 0.0 | 4.0 | 0.00 | 0.00 | 0.00 | 73 | 1012.0 |
| 20260506135558 | 50 | 22 | 0.0 | 4.0 | 0.00 | 0.00 | 0.00 | 74 | 1012.2 |
| 20260506134837 | 50 | 56 | 0.0 | 4.0 | 0.00 | 0.00 | 0.00 | 74 | 1012.4 |
| 20260506134339 | 50 | 28 | 0.0 | 4.0 | 0.00 | 0.00 | 0.00 | 74 | 1012.6 |
| 20260506133839 | 50 | 38 | 0.0 | 4.0 | 0.00 | 0.00 | 0.00 | 74 | 1012.7 |
| 20260506133337 | 50 | 46 | 0.0 | 5.0 | 0.00 | 0.00 | 0.00 | 75 | 1012.8 |
| 20260506132838 | 50 | 54 | 0.0 | 5.0 | 0.00 | 0.00 | 0.00 | 75 | 1012.8 |
| 20260506132336 | 49 | 63 | 0.0 | 5.0 | 0.00 | 0.00 | 0.00 | 76 | 1012.7 |
| 20260506131836 | 49 | 68 | 0.0 | 5.0 | 0.00 | 0.00 | 0.00 | 76 | 1012.7 |
| 20260506131337 | 49 | 61 | 0.0 | 4.0 | 0.00 | 0.00 | 0.00 | 76 | 1012.6 |
| 20260506130835 | 49 | 41 | 0.0 | 2.0 | 0.00 | 0.00 | 0.00 | 77 | 1012.3 |
| 20260506130334 | 49 | 40 | 0.0 | 0.0 | 0.00 | 0.00 | 0.00 | 77 | 1012.6 |
| 20260506125833 | 49 | 40 | 0.0 | 3.0 | 0.00 | 0.00 | 0.00 | 77 | 1012.3 |
| 20260506125334 | 49 | 40 | 0.0 | 3.0 | 0.00 | 0.00 | 0.00 | 78 | 1012.1 |
| 20260506124834 | 48 | 40 | 1.0 | 3.0 | 0.00 | 0.00 | 0.00 | 79 | 1012.1 |
| 20260506124333 | 48 | 40 | 0.0 | 3.0 | 0.00 | 0.00 | 0.00 | 79 | 1011.9 |
| 20260506123834 | 48 | 37 | 0.0 | 3.0 | 0.00 | 0.00 | 0.00 | 79 | 1012.0 |
| 20260506123334 | 48 | 37 | 0.0 | 1.0 | 0.00 | 0.00 | 0.00 | 79 | 1012.0 |
| 20260506122834 | 48 | 36 | 0.0 | 3.0 | 0.00 | 0.00 | 0.00 | 79 | 1012.1 |
| 20260506122334 | 48 | 36 | 0.0 | 3.0 | 0.00 | 0.00 | 0.00 | 79 | 1011.9 |
| 20260506122103 | 48 | 36 | 0.0 | 4.0 | 0.00 | 0.00 | 0.00 | 79 | 1011.8 |
| 20260506121334 | 48 | 36 | 1.0 | 6.0 | 0.00 | 0.00 | 0.00 | 79 | 1011.7 |
| 20260506121058 | 48 | 36 | 1.0 | 6.0 | 0.00 | 0.00 | 0.00 | 80 | 1012.0 |
| 20260506120335 | 47 | 28 | 0.0 | 6.0 | 0.00 | 0.00 | 0.00 | 81 | 1011.9 |
| 20260506120327 | 47 | 65 | 0.0 | 0.0 | 0.00 | 0.00 | 0.00 | 82 | 1011.8 |
| 20260506115118 | 47 | 65 | 0.0 | 0.0 | 0.00 | 0.00 | 0.00 | 82 | 1011.8 |
| 20260506114612 | 47 | 67 | 0.0 | 5.0 | 0.00 | 0.00 | 0.00 | 83 | 1011.9 |
| 20260506114115 | 47 | 67 | 0.0 | 5.0 | 0.00 | 0.00 | 0.00 | 83 | 1011.7 |
| 20260506113614 | 47 | 49 | 0.0 | 2.0 | 0.00 | 0.00 | 0.00 | 85 | 1011.8 |
| 20260506113111 | 47 | 74 | 0.0 | 2.0 | 0.00 | 0.00 | 0.00 | 87 | 1011.5 |
| 20260506112611 | 47 | 52 | 0.0 | 0.0 | 0.00 | 0.00 | 0.00 | 88 | 1011.5 |
| 20260506112114 | 47 | 52 | 0.0 | 4.0 | 0.00 | 0.00 | 0.00 | 88 | 1011.6 |
| 20260506111833 | 47 | 52 | 0.0 | 4.0 | 0.00 | 0.00 | 0.00 | 89 | 1011.5 |
| 20260506111114 | 47 | 342 | 0.0 | 0.0 | 0.00 | 0.00 | 0.00 | 89 | 1011.6 |
| 20260506110610 | 47 | 339 | 0.0 | 0.0 | 0.00 | 0.00 | 0.00 | 89 | 1011.7 |
| 20260506110107 | 47 | 338 | 0.0 | 0.0 | 0.00 | 0.00 | 0.00 | 89 | 1011.7 |
| 20260506105605 | 46 | 338 | 0.0 | 0.0 | 0.00 | 0.00 | 0.00 | 89 | 1011.8 |
| 20260506105104 | 46 | 338 | 0.0 | 0.0 | 0.00 | 0.00 | 0.00 | 89 | 1011.8 |
| 20260506104605 | 46 | 338 | 0.0 | 0.0 | 0.00 | 0.00 | 0.00 | 89 | 1011.6 |
| 20260506104104 | 46 | 338 | 0.0 | 0.0 | 0.00 | 0.01 | 0.00 | 89 | 1011.7 |
| 20260506103604 | 46 | 338 | 0.0 | 0.0 | 0.00 | 0.01 | 0.00 | 89 | 1011.4 |
| 20260506103103 | 46 | 338 | 0.0 | 0.0 | 0.00 | 0.01 | 0.00 | 88 | 1011.3 |
| 20260506102603 | 46 | 338 | 0.0 | 0.0 | 0.00 | 0.01 | 0.00 | 88 | 1011.2 |
| 20260506102102 | 46 | 338 | 0.0 | 0.0 | 0.00 | 0.01 | 0.00 | 88 | 1010.9 |
| 20260506101602 | 46 | 338 | 0.0 | 0.0 | 0.00 | 0.01 | 0.00 | 88 | 1010.7 |
| 20260506101102 | 46 | 338 | 0.0 | 0.0 | 0.00 | 0.01 | 0.00 | 88 | 1010.8 |
| 20260506100603 | 46 | 338 | 0.0 | 0.0 | 0.00 | 0.01 | 0.00 | 87 | 1010.9 |
| 20260506095602 | 46 | 338 | 0.0 | 1.0 | 0.00 | 0.01 | 0.00 | 87 | 1010.8 |
| 20260506095102 | 46 | 337 | 0.0 | 1.0 | 0.00 | 0.01 | 0.00 | 87 | 1010.6 |
| 20260506094602 | 46 | 337 | 0.0 | 0.0 | 0.00 | 0.01 | 0.00 | 88 | 1010.5 |
| 20260506094102 | 46 | 337 | 0.0 | 0.0 | 0.00 | 0.01 | 0.00 | 87 | 1010.6 |
| 20260506093602 | 46 | 336 | 0.0 | 0.0 | 0.00 | 0.01 | 0.00 | 87 | 1010.4 |
| 20260506093102 | 46 | 336 | 0.0 | 5.0 | 0.00 | 0.01 | 0.00 | 87 | 1010.6 |
| 20260506092603 | 46 | 336 | 0.0 | 5.0 | 0.00 | 0.01 | 0.00 | 87 | 1010.7 |
| 20260506092102 | 46 | 337 | 0.0 | 5.0 | 0.00 | 0.01 | 0.00 | 87 | 1010.6 |
| 20260506091602 | 46 | 337 | 0.0 | 5.0 | 0.00 | 0.01 | 0.00 | 87 | 1010.5 |
| 20260506091103 | 46 | 35 | 0.0 | 4.0 | 0.00 | 0.01 | 0.00 | 87 | 1010.4 |
| 20260506090603 | 46 | 35 | 0.0 | 4.0 | 0.00 | 0.01 | 0.00 | 86 | 1010.1 |
| 20260506085603 | 46 | 355 | 0.0 | 0.0 | 0.00 | 0.01 | 0.00 | 87 | 1010.0 |
| 20260506085550 | 46 | 355 | 0.0 | 0.0 | 0.00 | 0.01 | 0.00 | 87 | 1010.1 |
| 20260506084833 | 46 | 355 | 0.0 | 0.0 | 0.00 | 0.01 | 0.00 | 87 | 1009.9 |
| 20260506084551 | 46 | 355 | 0.0 | 0.0 | 0.00 | 0.01 | 0.00 | 87 | 1009.7 |
| 20260506083602 | 46 | 355 | 0.0 | 0.0 | 0.00 | 0.01 | 0.00 | 87 | 1009.5 |
| 20260506083104 | 46 | 355 | 0.0 | 0.0 | 0.00 | 0.01 | 0.00 | 87 | 1009.6 |
| 20260506083058 | 46 | 0 | 0.0 | 0.0 | 0.00 | 0.01 | 0.00 | 86 | 1009.4 |
| 20260506082102 | 46 | 0 | 0.0 | 0.0 | 0.00 | 0.01 | 0.00 | 87 | 1009.3 |
| 20260506081603 | 46 | 0 | 0.0 | 0.0 | 0.00 | 0.01 | 0.00 | 86 | 1009.2 |
| 20260506081102 | 46 | 0 | 0.0 | 0.0 | 0.00 | 0.01 | 0.00 | 86 | 1009.3 |
| 20260506080603 | 46 | 0 | 0.0 | 0.0 | 0.00 | 0.01 | 0.00 | 86 | 1009.1 |
| 20260506073310 | 47 | 40 | 0.0 | 0.0 | 0.00 | 0.01 | 0.00 | 83 | 1008.5 |
| 20260506073035 | 47 | 40 | 0.0 | 0.0 | 0.00 | 0.01 | 0.00 | 83 | 1008.7 |
| 20260506072046 | 47 | 40 | 0.0 | 0.0 | 0.00 | 0.01 | 0.00 | 82 | 1008.9 |
| 20260506071546 | 47 | 40 | 0.0 | 1.0 | 0.00 | 0.01 | 0.00 | 82 | 1008.8 |
| 20260506071045 | 47 | 40 | 0.0 | 1.0 | 0.00 | 0.01 | 0.00 | 82 | 1008.7 |
| 20260506070542 | 47 | 40 | 0.0 | 3.0 | 0.00 | 0.01 | 0.00 | 83 | 1008.1 |
| 20260506062035 | 47 | 44 | 0.0 | 0.0 | 0.00 | 0.01 | 0.00 | 82 | 1008.7 |
| 20260506061533 | 47 | 44 | 0.0 | 0.0 | 0.00 | 0.01 | 0.00 | 82 | 1008.4 |
| 20260506061252 | 47 | 44 | 0.0 | 6.0 | 0.00 | 0.01 | 0.00 | 81 | 1008.3 |
| 20260506060530 | 47 | 45 | 0.0 | 6.0 | 0.00 | 0.01 | 0.00 | 81 | 1008.3 |
| 20260506060300 | 47 | 74 | 0.0 | 3.0 | 0.00 | 0.01 | 0.00 | 81 | 1008.4 |
| 20260506051003 | 47 | 28 | 0.0 | 5.0 | 0.00 | 0.01 | 0.00 | 81 | 1009.0 |
| 20260506050503 | 47 | 32 | 0.0 | 5.0 | 0.00 | 0.01 | 0.00 | 82 | 1009.0 |
| 20260506045004 | 47 | 55 | 0.0 | 5.0 | 0.00 | 0.01 | 0.01 | 81 | 1009.1 |
| 20260506044503 | 47 | 40 | 0.0 | 5.0 | 0.00 | 0.01 | 0.01 | 81 | 1009.0 |
| 20260506044003 | 47 | 38 | 0.0 | 3.0 | 0.00 | 0.01 | 0.01 | 80 | 1008.9 |
| 20260506043949 | 47 | 38 | 0.0 | 1.0 | 0.00 | 0.01 | 0.01 | 81 | 1009.0 |
| 20260506043005 | 47 | 40 | 0.0 | 1.0 | 0.00 | 0.01 | 0.01 | 81 | 1009.0 |
| 20260506042502 | 47 | 40 | 0.0 | 0.0 | 0.00 | 0.01 | 0.01 | 81 | 1009.1 |
| 20260506042231 | 47 | 62 | 0.0 | 3.0 | 0.00 | 0.01 | 0.01 | 80 | 1009.4 |
| 20260506041504 | 47 | 62 | 0.0 | 3.0 | 0.00 | 0.01 | 0.01 | 79 | 1009.1 |
| 20260506041000 | 47 | 38 | 0.0 | 1.0 | 0.00 | 0.01 | 0.01 | 79 | 1009.3 |
| 20260506040503 | 47 | 46 | 1.0 | 8.0 | 0.00 | 0.01 | 0.01 | 78 | 1009.1 |
| 20260506040001 | 47 | 327 | 1.0 | 9.0 | 0.00 | 0.01 | 0.01 | 78 | 1009.3 |
| 20260506035720 | 48 | 343 | 1.0 | 9.0 | 0.00 | 0.02 | 0.01 | 79 | 1009.2 |
| 20260506034958 | 48 | 31 | 1.0 | 6.0 | 0.00 | 0.04 | 0.01 | 78 | 1009.1 |
| 20260506034500 | 48 | 333 | 1.0 | 8.0 | 0.00 | 0.04 | 0.01 | 79 | 1009.1 |
| 20260506033959 | 48 | 46 | 0.0 | 8.0 | 0.00 | 0.04 | 0.01 | 78 | 1008.8 |
| 20260506033458 | 48 | 325 | 0.0 | 1.0 | 0.00 | 0.04 | 0.01 | 77 | 1009.0 |
| 20260506032953 | 48 | 327 | 0.0 | 1.0 | 0.00 | 0.04 | 0.01 | 76 | 1009.0 |
| 20260506032453 | 48 | 324 | 0.0 | 5.0 | 0.00 | 0.04 | 0.01 | 76 | 1008.8 |
| 20260506031953 | 48 | 320 | 0.0 | 5.0 | 0.00 | 0.04 | 0.01 | 76 | 1008.5 |
| 20260506031453 | 49 | 333 | 0.0 | 2.0 | 0.00 | 0.04 | 0.01 | 76 | 1008.6 |
| 20260506030953 | 49 | 355 | 0.0 | 2.0 | 0.00 | 0.04 | 0.01 | 75 | 1008.5 |
| 20260506030453 | 49 | 355 | 0.0 | 2.0 | 0.00 | 0.04 | 0.01 | 73 | 1008.3 |
| 20260506025954 | 49 | 23 | 0.0 | 5.0 | 0.00 | 0.04 | 0.01 | 72 | 1008.2 |
| 20260506025716 | 49 | 0 | 0.0 | 5.0 | 0.00 | 0.04 | 0.01 | 73 | 1008.0 |
| 20260506024955 | 49 | 43 | 0.0 | 1.0 | 0.00 | 0.04 | 0.01 | 74 | 1007.8 |
| 20260506024448 | 49 | 42 | 0.0 | 2.0 | 0.00 | 0.04 | 0.01 | 74 | 1007.7 |
| 20260506023950 | 49 | 44 | 0.0 | 5.0 | 0.00 | 0.04 | 0.01 | 74 | 1007.6 |
| 20260506023449 | 49 | 44 | 1.0 | 5.0 | 0.00 | 0.04 | 0.01 | 74 | 1007.6 |
| 20260506022950 | 49 | 41 | 1.0 | 4.0 | 0.00 | 0.04 | 0.01 | 75 | 1007.4 |
| 20260506022452 | 49 | 38 | 1.0 | 4.0 | 0.00 | 0.04 | 0.01 | 75 | 1007.2 |
| 20260506022438 | 49 | 66 | 0.0 | 5.0 | 0.00 | 0.04 | 0.01 | 75 | 1007.0 |
| 20260506021933 | 49 | 45 | 0.0 | 5.0 | 0.00 | 0.04 | 0.01 | 76 | 1006.8 |
| 20260506020950 | 49 | 63 | 0.0 | 0.0 | 0.00 | 0.04 | 0.01 | 77 | 1006.9 |
| 20260506020449 | 49 | 63 | 0.0 | 0.0 | 0.00 | 0.04 | 0.01 | 76 | 1007.2 |
| 20260506015945 | 49 | 64 | 0.0 | 6.0 | 0.00 | 0.04 | 0.01 | 76 | 1007.3 |
| 20260506015708 | 49 | 65 | 1.0 | 6.0 | 0.00 | 0.04 | 0.01 | 75 | 1007.3 |
| 20260506014945 | 49 | 34 | 1.0 | 9.0 | 0.00 | 0.04 | 0.01 | 75 | 1006.9 |
| 20260506014446 | 49 | 36 | 1.0 | 9.0 | 0.00 | 0.04 | 0.01 | 74 | 1007.0 |
| 20260506014207 | 49 | 32 | 1.0 | 11.0 | 0.00 | 0.04 | 0.01 | 74 | 1007.0 |
| 20260506013446 | 49 | 58 | 1.0 | 11.0 | 0.00 | 0.04 | 0.01 | 73 | 1006.8 |
| 20260506012945 | 49 | 38 | 1.0 | 15.0 | 0.00 | 0.04 | 0.01 | 73 | 1006.5 |
| 20260506012704 | 49 | 39 | 2.0 | 15.0 | 0.00 | 0.04 | 0.01 | 72 | 1006.3 |
| 20260506011949 | 49 | 49 | 1.0 | 10.0 | 0.00 | 0.04 | 0.01 | 72 | 1006.2 |
| 20260506011449 | 49 | 43 | 2.0 | 10.0 | 0.00 | 0.04 | 0.01 | 72 | 1006.4 |
| 20260506010950 | 49 | 49 | 2.0 | 10.0 | 0.00 | 0.04 | 0.01 | 72 | 1006.5 |
| 20260506010700 | 50 | 56 | 2.0 | 11.0 | 0.00 | 0.04 | 0.01 | 72 | 1006.2 |
| 20260506005943 | 50 | 55 | 1.0 | 11.0 | 0.00 | 0.04 | 0.01 | 72 | 1006.0 |
| 20260506005441 | 50 | 85 | 1.0 | 9.0 | 0.00 | 0.04 | 0.01 | 72 | 1006.0 |
| 20260506005203 | 50 | 47 | 2.0 | 11.0 | 0.00 | 0.04 | 0.01 | 73 | 1005.8 |
| 20260506004436 | 50 | 36 | 2.0 | 14.0 | 0.00 | 0.04 | 0.01 | 73 | 1005.7 |
| 20260506004205 | 50 | 5 | 1.0 | 14.0 | 0.00 | 0.04 | 0.01 | 74 | 1005.8 |
| 20260506003429 | 50 | 46 | 1.0 | 6.0 | 0.00 | 0.04 | 0.01 | 75 | 1005.7 |
| 20260506003146 | 50 | 39 | 1.0 | 6.0 | 0.00 | 0.04 | 0.01 | 75 | 1005.6 |
| 20260506002416 | 50 | 85 | 1.0 | 8.0 | 0.00 | 0.04 | 0.01 | 75 | 1005.6 |
| 20260506001915 | 50 | 5 | 1.0 | 8.0 | 0.00 | 0.04 | 0.01 | 75 | 1005.6 |
| 20260506001415 | 50 | 36 | 1.0 | 8.0 | 0.00 | 0.04 | 0.01 | 75 | 1005.9 |
| 20260506000913 | 50 | 32 | 0.0 | 8.0 | 0.00 | 0.04 | 0.01 | 75 | 1006.0 |
| 20260506000416 | 50 | 42 | 0.0 | 6.0 | 0.00 | 0.04 | 0.01 | 76 | 1005.8 |
| 20260506000135 | 50 | 37 | 1.0 | 6.0 | 0.00 | 0.04 | 0.01 | 76 | 1005.7 |
| 20260505235411 | 50 | 34 | 1.0 | 6.0 | 0.00 | 0.04 | 0.01 | 75 | 1005.9 |
| 20260505234913 | 50 | 17 | 0.0 | 7.0 | 0.00 | 0.04 | 0.01 | 75 | 1005.9 |
| 20260505234413 | 50 | 58 | 1.0 | 7.0 | 0.00 | 0.04 | 0.01 | 75 | 1005.8 |
| 20260505233908 | 50 | 81 | 1.0 | 6.0 | 0.00 | 0.04 | 0.01 | 75 | 1005.8 |
| 20260505233628 | 50 | 32 | 1.0 | 9.0 | 0.00 | 0.04 | 0.01 | 75 | 1005.8 |
| 20260505233143 | 50 | 38 | 1.0 | 9.0 | 0.00 | 0.04 | 0.01 | 75 | 1005.7 |
| 20260505232405 | 50 | 355 | 1.0 | 6.0 | 0.00 | 0.04 | 0.01 | 77 | 1005.6 |
| 20260505231905 | 50 | 317 | 1.0 | 10.0 | 0.00 | 0.04 | 0.01 | 77 | 1005.6 |
| 20260505231403 | 50 | 42 | 2.0 | 10.0 | 0.00 | 0.04 | 0.01 | 77 | 1005.5 |
| 20260505230902 | 50 | 5 | 1.0 | 11.0 | 0.00 | 0.04 | 0.01 | 77 | 1005.4 |
| 20260505230829 | 50 | 30 | 1.0 | 11.0 | 0.00 | 0.04 | 0.01 | 77 | 1005.4 |
| 20260505230825 | 50 | 41 | 1.0 | 9.0 | 0.00 | 0.04 | 0.01 | 77 | 1005.4 |
| 20260505225350 | 50 | 22 | 2.0 | 12.0 | 0.00 | 0.04 | 0.01 | 76 | 1005.3 |
| 20260505224851 | 50 | 44 | 2.0 | 14.0 | 0.00 | 0.04 | 0.01 | 75 | 1005.2 |
| 20260505224617 | 50 | 21 | 2.0 | 14.0 | 0.00 | 0.04 | 0.01 | 75 | 1005.2 |
| 20260505223849 | 50 | 24 | 2.0 | 11.0 | 0.00 | 0.04 | 0.01 | 74 | 1004.9 |
| 20260505223347 | 50 | 42 | 1.0 | 9.0 | 0.00 | 0.04 | 0.01 | 74 | 1005.0 |
| 20260505223108 | 51 | 38 | 1.0 | 9.0 | 0.00 | 0.04 | 0.01 | 74 | 1005.1 |
| 20260505222347 | 51 | 30 | 1.0 | 12.0 | 0.00 | 0.04 | 0.01 | 73 | 1005.1 |
| 20260505222105 | 51 | 32 | 2.0 | 17.0 | 0.00 | 0.04 | 0.01 | 73 | 1005.0 |
| 20260505221346 | 51 | 34 | 2.0 | 17.0 | 0.00 | 0.04 | 0.01 | 71 | 1004.7 |
| 20260505220841 | 51 | 48 | 2.0 | 13.0 | 0.00 | 0.04 | 0.01 | 70 | 1004.8 |
| 20260505220340 | 51 | 28 | 2.0 | 16.0 | 0.00 | 0.04 | 0.01 | 70 | 1004.8 |
| 20260505215839 | 51 | 33 | 2.0 | 16.0 | 0.00 | 0.04 | 0.01 | 70 | 1004.9 |
| 20260505215340 | 51 | 52 | 2.0 | 14.0 | 0.00 | 0.04 | 0.01 | 71 | 1005.0 |
| 20260505214839 | 51 | 42 | 2.0 | 16.0 | 0.00 | 0.04 | 0.01 | 71 | 1004.7 |
| 20260505214337 | 51 | 47 | 3.0 | 17.0 | 0.00 | 0.04 | 0.01 | 71 | 1004.6 |
| 20260505213838 | 51 | 64 | 2.0 | 17.0 | 0.00 | 0.04 | 0.01 | 71 | 1004.6 |
| 20260505213602 | 51 | 350 | 1.0 | 13.0 | 0.00 | 0.04 | 0.01 | 72 | 1004.5 |
| 20260505212832 | 51 | 50 | 2.0 | 13.0 | 0.00 | 0.04 | 0.01 | 72 | 1004.5 |
| 20260505212334 | 51 | 34 | 2.0 | 14.0 | 0.00 | 0.04 | 0.01 | 72 | 1004.6 |
| 20260505211831 | 51 | 74 | 2.0 | 14.0 | 0.00 | 0.04 | 0.01 | 72 | 1004.7 |
| 20260505211601 | 52 | 27 | 2.0 | 13.0 | 0.00 | 0.04 | 0.01 | 72 | 1004.8 |
| 20260505210835 | 52 | 24 | 1.0 | 16.0 | 0.00 | 0.04 | 0.01 | 73 | 1004.7 |
| 20260505210332 | 52 | 67 | 1.0 | 16.0 | 0.00 | 0.04 | 0.01 | 73 | 1004.5 |
| 20260505205834 | 52 | 44 | 2.0 | 14.0 | 0.00 | 0.04 | 0.01 | 72 | 1004.6 |
| 20260505205335 | 52 | 14 | 3.0 | 17.0 | 0.00 | 0.04 | 0.01 | 72 | 1004.5 |